The Dalles, WA

1:31 AM PDT on July 17, 2019 (GMT -0700)
Columbia Gorge Regional-The Dalles

Weather History for KDLS - May, 2019

Change the Weather History Date:

Tuesday, May 7, 2019

  Actual Average Record
Temperature  
Mean Temperature 70 °F -  
Max Temperature 82 °F 73 °F 97 °F (1987)
Min Temperature 59 °F 47 °F 35 °F (1984)
Cooling Degree Days 6    
Growing Degree Days 20 (Base 50)    
Moisture  
Dew Point 44 °F    
Average Humidity 40    
Maximum Humidity 58    
Minimum Humidity 26    
Precipitation  
Precipitation 0.00 in - - ()
Sea Level Pressure  
Sea Level Pressure 29.96 in    
Wind  
Wind Speed 14 mph (NW)    
Max Wind Speed 21 mph    
Max Gust Speed 28 mph    
Visibility 10 miles    
Events      
Averages and records for this station are not official NWS values.
T = Trace of Precipitation, MM = Missing Value Source: NWS Daily Summary

Daily Weather History Graph

Daily Weather History Graph

Search for Another Location

Airport or City:

Astronomy

May. 07, 2019 Rise Set
Actual Time 5:44 AM PDT 8:19 PM PDT
Civil Twilight 5:10 AM PDT 8:52 PM PDT
Nautical Twilight 4:28 AM PDT 9:35 PM PDT
Astronomical Twilight 3:39 AM PDT 10:24 PM PDT
Moon 7:50 AM PDT (5/7) 11:29 PM PDT (5/7)
Length of Visible Light 15h 42m
Length of Day
14h 35m
Waxing Crescent, 9% of the Moon is Illuminated
May 7
Waxing Crescent
May 11
First Quarter
May 18
Full
May 26
Last Quarter
Jun 3
New

Hourly Weather History & Observations

Time (PDT) Temp. Dew Point Humidity Pressure Visibility Wind Dir Wind Speed Gust Speed Precip Events Conditions
12:53 AM 66.0 °F 44.1 °F 45% 29.88 in 10.0 mi NNW 10.4 mph - N/A   Clear
1:53 AM 64.0 °F 45.0 °F 50% 29.89 in 10.0 mi NW 13.8 mph - N/A   Clear
2:53 AM 64.0 °F 45.0 °F 50% 29.90 in 10.0 mi NW 11.5 mph 17.3 mph N/A   Clear
3:53 AM 63.0 °F 45.0 °F 52% 29.90 in 10.0 mi NW 17.3 mph 26.5 mph N/A   Clear
4:53 AM 61.0 °F 44.1 °F 54% 29.92 in 10.0 mi NW 15.0 mph 25.3 mph N/A   Clear
5:53 AM 59.0 °F 44.1 °F 58% 29.94 in 10.0 mi NW 11.5 mph - N/A   Clear
6:53 AM 60.1 °F 44.1 °F 55% 29.96 in 10.0 mi NW 15.0 mph - N/A   Clear
7:53 AM 63.0 °F 45.0 °F 52% 29.98 in 10.0 mi NW 10.4 mph - N/A   Clear
8:53 AM 64.9 °F 44.1 °F 47% 29.99 in 10.0 mi NW 19.6 mph - N/A   Clear
9:53 AM 68.0 °F 44.1 °F 42% 29.99 in 10.0 mi NW 19.6 mph 27.6 mph N/A   Clear
10:53 AM 72.0 °F 45.0 °F 38% 29.98 in 10.0 mi NNW 18.4 mph - N/A   Clear
11:53 AM 75.9 °F 45.0 °F 33% 29.98 in 10.0 mi NNW 16.1 mph - N/A   Clear
12:53 PM 79.0 °F 44.1 °F 29% 29.97 in 10.0 mi NNW 13.8 mph - N/A   Clear
1:53 PM 81.0 °F 43.0 °F 26% 29.96 in 10.0 mi NNW 13.8 mph - N/A   Clear
2:53 PM 81.0 °F 44.1 °F 27% 29.95 in 10.0 mi NNW 16.1 mph - N/A   Clear
3:53 PM 82.0 °F 45.0 °F 27% 29.94 in 10.0 mi NW 11.5 mph - N/A   Clear
4:53 PM 81.0 °F 46.9 °F 30% 29.94 in 10.0 mi NW 15.0 mph - N/A   Clear
5:53 PM 80.1 °F 44.1 °F 28% 29.94 in 10.0 mi WNW 20.7 mph - N/A   Clear
6:53 PM 78.1 °F 44.1 °F 30% 29.95 in 10.0 mi WNW 17.3 mph 24.2 mph N/A   Clear
7:53 PM 75.0 °F 43.0 °F 32% 29.97 in 10.0 mi West 15.0 mph - N/A   Clear
8:53 PM 72.0 °F 42.1 °F 34% 29.99 in 10.0 mi West 11.5 mph - N/A   Clear
9:53 PM 71.1 °F 43.0 °F 36% 30.01 in 10.0 mi West 13.8 mph 23.0 mph N/A   Clear
10:53 PM 68.0 °F 45.0 °F 43% 30.02 in 10.0 mi NW 11.5 mph - N/A   Clear
11:53 PM 66.0 °F 46.0 °F 48% 30.03 in 10.0 mi NW 13.8 mph - N/A   Clear